Regional Weather Roundup
Issued by NWS

Home | Current Version | Previous Version | Graphics & Text | Print | Product List | Glossary On
Versions: 1 2 3 4 5 6 7 8 9 10 11 12 13 14 15 16 17 18 19 20 21 22 23 24 25 26 27 28 29 30 31 32 33 34 35 36 37 38 39 40 41 42 43 44 45 46 47 48 49 50
625
ASUS43 KMKX 030521
RWRWI

WISCONSIN REGIONAL WEATHER ROUNDUP
NATIONAL WEATHER SERVICE MILWAUKEE/SULLIVAN WI
1100 PM CST FRI DEC 02 2016

NOTE: "FAIR" INDICATES FEW OR NO CLOUDS BELOW 12,000 FEET WITH NO
SIGNIFICANT WEATHER AND/OR OBSTRUCTIONS TO VISIBILITY.

WIZ001-002-006>008-014>016-023>028-030600-
NORTHWEST WISCONSIN

CITY           SKY/WX    TMP DP  RH WIND       PRES   REMARKS
SUPERIOR ARPT  CLOUDY    30  24  79 W8        30.28R WCI  22
ASHLAND        CLOUDY    29  24  82 VRB7      30.27R WCI  22
HAYWARD        CLOUDY    29  22  75 SW3       30.26R
SIREN          CLOUDY    29  24  80 W6        30.28S WCI  23
CUMBERLAND     CLOUDY    28  23  80 CALM      30.26F
RICE LAKE      CLOUDY    30  23  76 W3        30.29S
CHETEK         CLOUDY    30  24  78 NW3       30.28S
LADYSMITH      CLOUDY    29  25  82 NW3       30.28F
EAU CLAIRE     CLOUDY    31  24  75 W6        30.29R WCI  25
MENOMONIE      CLOUDY    32  26  80 W5        30.30R WCI  27
NEW RICHMOND   CLOUDY    29  24  81 CALM      30.29S
OSCEOLA        CLOUDY    30  25  80 CALM      30.32S
$$

WIZ003>005-009-010-017-018-030600-
NORTH CENTRAL WISCONSIN

CITY           SKY/WX    TMP DP  RH WIND       PRES   REMARKS
MANITOWISH WTR CLOUDY    27  27 100 W3        30.22R
ARBOR VITAE    CLOUDY    29  28  93 W5        30.22S WCI  24
WOODRUFF       CLOUDY    29  28  93 W5        30.22S WCI  24
RHINELANDER    CLOUDY    29  27  92 W6        30.22R WCI  23
EAGLE RIVER    FLURRIES  29  28  96 CALM      30.21R
LAND O LAKES   CLOUDY    29  28  94 W3        30.22S
PHILLIPS       CLOUDY    26  23  89 SW3       30.25R
TOMAHAWK       CLOUDY    28  24  82 CALM      30.25R
MEDFORD        CLOUDY    28  23  82 W8        30.25S WCI  19
MERRILL        CLOUDY    30  24  79 W3        30.26S
$$

WIZ029-030-035-036-043>047-030600-
CENTRAL WISCONSIN

CITY           SKY/WX    TMP DP  RH WIND       PRES   REMARKS
WAUSAU         CLOUDY    30  23  75 W6        30.25R WCI  24
MOSINEE        CLOUDY    30  25  80 NW6       30.27R WCI  24
MARSHFIELD     CLOUDY    29  23  78 W5        30.26R WCI  24
STEVENS POINT  CLOUDY    29  21  74 W3        30.28S
WAUPACA        CLOUDY    33  25  71 W7        30.29S WCI  27
WAUTOMA        CLOUDY    31  23  72 W6        30.30S WCI  25
WISC RAPIDS    CLOUDY    31  24  75 N7        30.30R WCI  24
CAMP DOUGLAS   CLOUDY    31  24  76 W8        30.30R WCI  23
$$

WIZ011>013-019>022-031-037>040-048>050-030600-
NORTHEAST WISCONSIN

CITY           SKY/WX    TMP DP  RH WIND       PRES   REMARKS
ANTIGO         CLOUDY    29  24  81 CALM      30.24R
SHAWANO        CLOUDY    35  27  75 CALM      30.27S
OCONTO         CLOUDY    34  28  77 W6        30.26R WCI  29
STURGEON BAY   CLOUDY    36  28  73 NW9       30.25R WCI  29
GREEN BAY      CLOUDY    35  29  78 W8        30.27R WCI  29
MANITOWOC      CLOUDY    34  27  75 MISG      30.28R
APPLETON       CLOUDY    32  25  74 SW8       30.26R WCI  25
CLINTONVILLE   CLOUDY    32  27  80 W7        30.27S WCI  26
OSHKOSH        CLOUDY    32  24  72 W5        30.29R WCI  27
$$

WIZ032>034-041-042-053>061-030600-
SOUTHWEST WISCONSIN

CITY           SKY/WX    TMP DP  RH WIND       PRES   REMARKS
LA CROSSE      CLOUDY    34  22  61 W7        30.32R WCI  28
SPARTA         CLOUDY    32  24  73 W5        30.32R WCI  27
VIROQUA        CLOUDY    30  23  75 NW8       30.29S WCI  22
BOSCOBEL       CLOUDY    33  22  63 W5        30.34R WCI  29
PRAIRIE DU CHI CLOUDY    32  22  67 W7        30.34R WCI  26
PLATTEVILLE    CLOUDY    31  26  82 W6        30.32S WCI  25
$$

WIZ056-057-062-063-064-067-068-030600-
SOUTH CENTRAL WISCONSIN

CITY           SKY/WX    TMP DP  RH WIND       PRES   REMARKS
REEDSBURG      CLOUDY    31  24  74 CALM      30.31R
BARABOO/DELLS  CLOUDY    30  23  73 W5        30.30R WCI  25
LONE ROCK      CLOUDY    32  23  69 W6        30.33R WCI  26
MINERAL POINT  CLOUDY    32  27  80 NW5       30.30R WCI  27
MADISON        CLOUDY    31  22  69 W6        30.31S WCI  25
MIDDLETON      CLOUDY    32  26  77 NW8       30.31R WCI  25
WATERTOWN      CLOUDY    31  25  77 W5        30.30S WCI  26
MONROE         CLOUDY    32  25  74 W6        30.30R WCI  26
JANESVILLE     CLOUDY    32  27  80 NW6       30.32R WCI  26
$$

WIZ051-052-058>065-066-070>072-030600-
SOUTHEAST WISCONSIN

CITY           SKY/WX    TMP DP  RH WIND       PRES   REMARKS
MILWAUKEE      CLOUDY    34  23  64 NW7       30.30S WCI  28
WAUKESHA       CLOUDY    30  23  74 NW5       30.31S WCI  25
MILWAUKEE/TIMM CLOUDY    32  21  64 W8        30.31S WCI  25
RACINE         CLOUDY    33  22  63 W6        30.32S WCI  28
BURLINGTON     CLOUDY    32  24  72 CALM      30.31R
KENOSHA        CLOUDY    33  23  66 NW6       30.31S WCI  28
FOND DU LAC    CLOUDY    32  22  66 W8        30.29S WCI  25
SHEBOYGAN      CLOUDY    32  25  75 W8        30.28S WCI  25
WEST BEND      CLOUDY    32  27  80 W6        30.28F WCI  26
JUNEAU         CLOUDY    30  23  75 W3        30.30S
$$

LSZ147-162-030600-
LAKE SUPERIOR

STATION/POSITION TIME  TEMP    WIND        PRES    WAVE
                       AIR SEA DIR/SP/G            HT/PER
                 (UTC) (F)     (DEG/KT/KT) (MB)    (FT/S)
DEVILS ISLAND    0500   33     290/ 10/ 12 1025.4R
PORT WING        0440   31     210/  5/  9 1024.7S
SAXON HARBOR     0440   30     200/  7/  9 1024.4S
$$

LMZ867-665-643>646-030600-
LAKE MICHIGAN

STATION/POSITION TIME  TEMP    WIND        PRES    WAVE
                       AIR SEA DIR/SP/G            HT/PER
                 (UTC) (F)     (DEG/KT/KT) (MB)    (FT/S)
CHAMBERS ISLAND  0440   37     300/  6/ 11 1023.7R
NORTHPORT PIER   0430   38     310/ 11/ 14 1023.4S
SISTER BAY       0253   38     330/ 14/ 17   N/A
ALGOMA LAKESHORE 0451          260/  7/ 10   N/A
KEWAUNEE LAKESHO 0500   35     280/  7/  9 1024.1
SHEBOYGAN LAKESH 0500   33     260/ 11/ 12 1025.9R
PORT WASHINGTON  0440   34     320/  5/  8 1026.8S
MILWAUKEE LAKESH 0500   33     290/  7/  8   N/A
S MID LAKE BUOY  0450   37 49  300/ 10/ 12 1026.0R   2/ 5
KENOSHA   LAKESH 0500   33     310/  7/  9 1026.4
$$

TC  - TEMPERATURE IN CELSIUS
VSB - VISIBILITY IN STATUTE MILES
WCI - WIND CHILL INDEX
HX  - HEAT INDEX





USA.gov is the U.S. government's official web portal to all federal, state and local government web resources and services.